Weather in Fedorovka

Russia / Republic of Bashkortostan     53°10′44″N   55°11′08″E
temp.,
°C
wind,
m/s
gust,
m/s
humid.,
%
clouds,
%
prec.,
mm/h
press.,
hPa
HPBL,
m
4 march, thu
thu423:00−7w479685 0.1 1003126
02:00−9w5109635 0.0 1004200
05:00−11wnw489546 0.1 1005155
08:00−12w499686 0.0 1006169
11:00−9w7129373 0.1 1007456
14:00−6wsw8139291 0.1 1006522
17:00−5sw9159292 0.4 1005678
20:00−5sw101693100 0.4 1003893
5 march, fri
fri523:00−3sw111993100 1.7 1001937
02:00−1wsw121893100 1.1 10011000
05:00−2wsw101692100 1.6 1002877
08:00−3sw101692100 0.7 1003760
11:00−3sw91495100 1.9 1003735
14:00−2sw91395100 1.8 1003883
17:00−1wsw61097100 3.1 1003665
20:00−5n6993100 1.9 1005290
6 march, sat
sat623:00−7nw129699 2.0 100925
02:00−10nw1197100 0.1 101121
05:00−13w119793 0.1 101421
08:00−15w129167 0.0 101520
11:00−10wsw238252 0.0 1015136
14:00−7wsw357937 0.0 1015289
17:00−8sw358663 0.0 1014254
20:00−11wsw2289100 0.0 101321
7 march, sun
sun723:00−10w1189100 0.0 101221
02:00−10n2296100 0.3 101043
05:00−12n3495100 0.4 1009128
08:00−17nnw3397100 0.0 101047
11:00−15nnw379178 0.0 1011271
14:00−13nw47880 0.0 1012460
17:00−13nw369043 0.0 1013466
20:00−19w239734 0.0 101520
8 march, mon
mon823:00−19sw339327 0.0 101631
02:00−19ssw499741 0.0 1014183
05:00−16s6129567 0.1 1012302
08:00−13ssw81693100 0.3 1009535
11:00−7ssw101693100 1.1 1007989
14:00−4sw101592100 1.2 10081190
17:00−4sw81289100 1.6 1009906
20:00−5ssw81594100 0.4 1007835